Good Hope, IL

6:16 PM CDT on August 25, 2016 (GMT -0500)
Macomb Municipal

Weather History for KMQB - December, 2012

Change the Weather History Date:

Saturday, December 29, 2012

  Actual Average (KBRL) Record (KBRL)
Temperature  
Mean Temperature 18 °F 26 °F  
Max Temperature 28 °F 34 °F 65 °F (1984)
Min Temperature 9 °F 18 °F -15 °F (1917)
Degree Days  
Heating Degree Days 46 39  
Month to date heating degree days 1036  
Since 1 July heating degree days 2109  
Cooling Degree Days 0 0  
Month to date cooling degree days 0  
Year to date cooling degree days 1207  
Moisture  
Dew Point 18 °F    
Average Humidity 89    
Maximum Humidity 96    
Minimum Humidity 78    
Precipitation  
Precipitation 0.00 in 0.06 in 0.33 in (1990)
Month to date precipitation 1.99  
Year to date precipitation 38.38  
Sea Level Pressure  
Sea Level Pressure 30.13 in    
Wind  
Wind Speed 11 mph (WNW)    
Max Wind Speed 23 mph    
Max Gust Speed 29 mph    
Visibility 7 miles    
Events Snow    
T = Trace of Precipitation, MM = Missing Value Source: NWS Daily Summary

Daily Weather History Graph

Daily Weather History Graph

Search for Another Location

Airport or City:

Trip Planner

Search our weather history database for the weather conditions in past years. The results will help you decide how hot, cold, wet, or windy it might be!

Date:

Astronomy

Dec. 29, 2012 Rise Set
Actual Time 7:25 AM CST 4:44 PM CST
Civil Twilight 6:54 AM CST 5:15 PM CST
Nautical Twilight 6:20 AM CST 5:49 PM CST
Astronomical Twilight 5:47 AM CST 6:22 PM CST
Moon 6:17 PM CST (12/29) 7:58 AM CST (12/29)
Length of Visible Light 10h 20m
Length of Day
9h 18m
Full, 98% of the Moon is Illuminated
Dec 29
Full
Jan 4
Last Quarter
Jan 11
New
Jan 18
First Quarter
Jan 26
Full

Hourly Weather History & Observations

Time (CST) Temp. Windchill Dew Point Humidity Pressure Visibility Wind Dir Wind Speed Gust Speed Precip Events Conditions
12:15 AM 28.4 °F 21.2 °F 27.3 °F 96% 29.94 in 5.0 mi NW 6.9 mph - N/A   Overcast
12:35 AM 28.4 °F 21.2 °F 27.3 °F 96% 29.94 in 5.0 mi NW 6.9 mph - N/A   Overcast
12:55 AM 28.4 °F 20.4 °F 26.6 °F 93% 29.94 in 5.0 mi NW 8.1 mph - N/A   Overcast
1:15 AM 28.4 °F 21.2 °F 27.3 °F 96% 29.95 in 4.0 mi NW 6.9 mph - N/A   Overcast
1:35 AM 28.2 °F 19.5 °F 27.1 °F 96% 29.95 in 4.0 mi NNW 9.2 mph - N/A   Overcast
1:55 AM 27.9 °F 19.8 °F 26.4 °F 94% 29.95 in 5.0 mi NW 8.1 mph - N/A   Overcast
2:15 AM 28.2 °F 19.5 °F 25.7 °F 90% 29.96 in 7.0 mi NW 9.2 mph - N/A   Overcast
2:35 AM 28.2 °F 20.2 °F 26.1 °F 92% 29.97 in 7.0 mi NW 8.1 mph - N/A   Overcast
2:55 AM 28.2 °F 18.3 °F 26.4 °F 93% 29.98 in 5.0 mi NW 11.5 mph - N/A   Overcast
3:15 AM 28.0 °F 20.0 °F 26.4 °F 94% 29.98 in 4.0 mi NW 8.1 mph - N/A   Overcast
3:35 AM 27.9 °F 18.4 °F 25.7 °F 92% 29.98 in 4.0 mi NW 10.4 mph - N/A   Overcast
3:55 AM 27.5 °F 18.0 °F 25.7 °F 93% 29.98 in 4.0 mi NW 10.4 mph - N/A Snow Light Snow
4:15 AM 27.3 °F 17.7 °F 25.5 °F 93% 29.98 in 4.0 mi NW 10.4 mph - N/A Snow Light Snow
4:35 AM 27.3 °F 17.1 °F 25.5 °F 93% 29.99 in 4.0 mi NW 11.5 mph - N/A   Overcast
4:55 AM 27.3 °F 17.7 °F 25.5 °F 93% 29.99 in 4.0 mi NW 10.4 mph - N/A   Overcast
5:15 AM 27.3 °F 16.6 °F 25.3 °F 92% 30.00 in 4.0 mi NW 12.7 mph - N/A   Overcast
5:35 AM 27.0 °F 15.6 °F 24.1 °F 89% 30.00 in 5.0 mi NW 13.8 mph 21.9 mph N/A   Overcast
5:55 AM 26.6 °F 13.4 °F 23.0 °F 86% 30.01 in 5.0 mi NW 18.4 mph 21.9 mph N/A   Overcast
6:15 AM 25.5 °F 12.4 °F 23.0 °F 90% 30.03 in 5.0 mi NW 17.3 mph - N/A   Overcast
6:35 AM 24.8 °F 12.9 °F 21.7 °F 88% 30.03 in 7.0 mi NW 13.8 mph - N/A   Overcast
6:55 AM 24.3 °F 10.8 °F 21.2 °F 88% 30.04 in 7.0 mi NW 17.3 mph 20.7 mph N/A   Overcast
7:15 AM 23.7 °F 10.1 °F 20.5 °F 87% 30.05 in 7.0 mi NW 17.3 mph - N/A   Overcast
7:35 AM 23.7 °F 12.1 °F 21.0 °F 89% 30.06 in 7.0 mi NW 12.7 mph - N/A   Overcast
7:55 AM 23.7 °F 11.5 °F 20.8 °F 89% 30.06 in 7.0 mi WNW 13.8 mph - N/A   Overcast
8:15 AM 23.0 °F 10.1 °F 21.2 °F 93% 30.07 in 5.0 mi WNW 15.0 mph - N/A   Overcast
8:35 AM 23.7 °F 11.0 °F 21.2 °F 90% 30.08 in 4.0 mi WNW 15.0 mph 19.6 mph N/A Snow Light Snow
8:55 AM 23.7 °F 10.1 °F 21.2 °F 90% 30.09 in 4.0 mi WNW 17.3 mph 20.7 mph N/A Snow Light Snow
9:15 AM 23.9 °F 10.8 °F 21.0 °F 89% 30.10 in 4.0 mi WNW 16.1 mph - N/A Snow Light Snow
9:35 AM 23.5 °F 9.0 °F 20.3 °F 87% 30.11 in 5.0 mi WNW 19.6 mph - N/A   Overcast
9:55 AM 23.0 °F 8.7 °F 21.2 °F 93% 30.12 in 5.0 mi NW 18.4 mph 26.5 mph N/A Snow Light Snow
10:15 AM 23.4 °F 8.8 °F 20.1 °F 87% 30.13 in 3.0 mi NW 19.6 mph 24.2 mph N/A Snow Light Snow
10:35 AM 23.0 °F 7.6 °F 19.6 °F 87% 30.14 in 5.0 mi WNW 21.9 mph 26.5 mph N/A Snow Light Snow
10:55 AM 23.0 °F 8.0 °F 19.4 °F 86% 30.14 in 5.0 mi NW 20.7 mph - N/A Snow Light Snow
11:15 AM 22.6 °F 6.8 °F 19.2 °F 87% 30.14 in 5.0 mi WNW 23.0 mph 28.8 mph N/A   Overcast
11:35 AM 23.0 °F 8.7 °F 19.4 °F 86% 30.15 in 5.0 mi WNW 18.4 mph - N/A   Overcast
11:55 AM 22.8 °F 8.1 °F 18.9 °F 85% 30.14 in 7.0 mi WNW 19.6 mph 23.0 mph N/A   Overcast
12:15 PM 22.5 °F 8.0 °F 19.0 °F 87% 30.14 in 7.0 mi WNW 18.4 mph - N/A   Overcast
12:35 PM 22.3 °F 7.0 °F 18.5 °F 85% 30.15 in 10.0 mi West 20.7 mph - N/A   Overcast
12:55 PM 21.0 °F 5.7 °F 17.6 °F 87% 30.16 in 7.0 mi West 19.6 mph - N/A   Overcast
1:15 PM 21.9 °F 6.5 °F 18.0 °F 85% 30.16 in 7.0 mi West 20.7 mph - N/A   Overcast
1:35 PM 21.0 °F 5.0 °F 16.5 °F 83% 30.16 in 10.0 mi West 21.9 mph 25.3 mph N/A   Mostly Cloudy
1:55 PM 21.2 °F 6.0 °F 17.6 °F 86% 30.16 in 10.0 mi West 19.6 mph - N/A   Overcast
2:15 PM 20.7 °F 4.5 °F 16.0 °F 82% 30.17 in 10.0 mi WNW 21.9 mph - N/A   Overcast
2:35 PM 20.3 °F 5.2 °F 16.2 °F 84% 30.18 in 7.0 mi WNW 18.4 mph 23.0 mph N/A   Scattered Clouds
2:55 PM 20.3 °F 5.2 °F 15.1 °F 80% 30.18 in 7.0 mi WNW 18.4 mph - N/A   Scattered Clouds
3:15 PM 20.1 °F 5.4 °F 14.7 °F 80% 30.19 in 7.0 mi WNW 17.3 mph - N/A   Clear
3:35 PM 19.9 °F 5.7 °F 14.4 °F 79% 30.20 in 10.0 mi WNW 16.1 mph - N/A   Clear
3:55 PM 19.9 °F 5.7 °F 14.0 °F 78% 30.20 in 10.0 mi WNW 16.1 mph - N/A   Clear
4:15 PM 19.4 °F 4.1 °F 13.6 °F 78% 30.22 in 10.0 mi WNW 18.4 mph - N/A   Clear
4:35 PM 19.0 °F 5.0 °F 13.5 °F 79% 30.22 in 10.0 mi WNW 15.0 mph - N/A   Clear
4:55 PM 18.3 °F 6.6 °F 13.1 °F 80% 30.22 in 10.0 mi WNW 10.4 mph - N/A   Clear
5:15 PM 17.6 °F 5.7 °F 12.9 °F 82% 30.23 in 10.0 mi WNW 10.4 mph - N/A   Clear
5:35 PM 16.7 °F 6.2 °F 12.4 °F 83% 30.23 in 10.0 mi NW 8.1 mph - N/A   Clear
5:55 PM 15.3 °F 5.4 °F 11.5 °F 85% 30.25 in 10.0 mi West 6.9 mph - N/A   Clear
6:15 PM 13.5 °F 7.5 °F 10.4 °F 88% 30.25 in 10.0 mi West 3.5 mph - N/A   Clear
6:35 PM 14.2 °F 5.3 °F 10.6 °F 86% 30.26 in 10.0 mi West 5.8 mph - N/A   Clear
6:55 PM 13.3 °F 4.2 °F 10.4 °F 88% 30.27 in 10.0 mi West 5.8 mph - N/A   Clear
7:15 PM 13.1 °F 5.4 °F 10.2 °F 88% 30.28 in 10.0 mi WSW 4.6 mph - N/A   Clear
7:35 PM 13.3 °F 4.2 °F 10.6 °F 89% 30.28 in 10.0 mi WSW 5.8 mph - N/A   Clear
7:55 PM 12.4 °F 3.1 °F 9.9 °F 90% 30.28 in 7.0 mi WSW 5.8 mph - N/A   Clear
8:15 PM 11.3 °F 3.3 °F 8.6 °F 89% 30.28 in 7.0 mi SW 4.6 mph - N/A   Clear
8:35 PM 9.5 °F - 7.3 °F 91% 30.28 in 7.0 mi Calm Calm - N/A   Clear
8:55 PM 11.3 °F 5.1 °F 9.3 °F 92% 30.28 in 7.0 mi SW 3.5 mph - N/A   Clear
9:15 PM 11.5 °F 5.3 °F 10.2 °F 95% 30.28 in 7.0 mi SW 3.5 mph - N/A   Clear
9:35 PM 12.2 °F 4.3 °F 10.8 °F 94% 30.28 in 10.0 mi SW 4.6 mph - N/A   Clear
9:55 PM 12.4 °F 3.1 °F 9.9 °F 90% 30.29 in 7.0 mi SW 5.8 mph - N/A   Clear
10:15 PM 12.9 °F 3.8 °F 11.1 °F 93% 30.29 in 7.0 mi SW 5.8 mph - N/A   Clear
10:35 PM 12.7 °F 2.4 °F 10.6 °F 91% 30.29 in 7.0 mi SW 6.9 mph - N/A   Clear
10:55 PM 13.3 °F 3.0 °F 11.3 °F 92% 30.30 in 10.0 mi WSW 6.9 mph - N/A   Clear
11:15 PM 13.8 °F 4.9 °F 11.7 °F 91% 30.31 in 10.0 mi SW 5.8 mph - N/A   Clear
11:35 PM 14.0 °F 8.2 °F 12.2 °F 93% 30.30 in 10.0 mi SW 3.5 mph - N/A   Clear
11:55 PM 14.0 °F 6.5 °F 12.2 °F 93% 30.29 in 7.0 mi SW 4.6 mph - N/A   Clear